MMS 4

Last updated on Mon Sep 21 2026 00:02:53 GMT+0000 (Coordinated Universal Time)

1 40485U 15011D 26263.66668981 -.00001946 00000+0 00000+0 0 9997 2 40485 72.8975 347.7205 8258704 169.4141 318.7703 0.28195175 1399
UTC large
Height (km)
Speed (km/s)
/
Latitude / Longitude
Inclination (degrees)
Orbital Period (minutes)
Azimuth
Elevation
Range (km)
Doppler Factor

Next 0 passes for location: London (51.5072 / 0.1276)

No passes found over London.
MMS 4